GSLV R/B

Last updated on Wed Jul 02 2025 00:02:15 GMT+0000 (Coordinated Universal Time)

1 54149U 22138AN 25182.57745963 .00001629 00000+0 14626-3 0 9992 2 54149 87.3785 250.4436 0021556 349.9620 10.1177 14.94895390146391
UTC large
Height (km)
Speed (km/s)
/
Latitude / Longitude
Inclination (degrees)
Orbital Period (minutes)
Azimuth
Elevation
Range (km)
Doppler Factor

Next 0 passes for location: London (51.5072 / 0.1276)

Sorry there are no passes over London.